Location: Newark
(45.8511°N, 10.8245°E)
Time: 11:02:51
(UTC+00:00)

OTV 5 (USA 277) - Pass Details

Date: 25 August 2019
Orbit: 295 x 339 km, 54.5° (Epoch: 08 September)

Event Time Altitude Azimuth Distance (km) Brightness Sun altitude
Rises 19:42:23 0° 241° (WSW) 1,997 ? -15.6°
Reaches altitude 10° 19:44:20 10° 244° (WSW) 1,170 ? -15.9°
Maximum altitude 19:46:54 63° 327° (NNW) 337 ? -16.2°
Enters shadow 19:48:05 27° 42° (NE) 617 ? -16.4°
